User: anonymous   Login
Location: Brno
(49.2000°N, 16.6330°E)
Time: 18:44:57
(UTC+01:00)
Language:

Iridium 2 - Orbit

View from above orbital plane
View from above orbital plane
View from above satellite
View from above satellite

Ground track
Ground track

The orbit data is extracted from the following two-line orbital elements,

1 25527U 98066A   15087.21858056  .00006766  00000-0  39618-3 0  9991
2 25527 085.5338 150.0967 0010913 172.9848 243.7265 15.11596807894975
Epoch (UTC): 28 March 2015 05:14:45
Eccentricity: 0.0010913
inclination: 85.5338°
perigee height: 524 km
apogee height: 539 km
right ascension of ascending node: 150.0967°
argument of perigee: 172.9848°
revolutions per day: 15.11596807
mean anomaly at epoch: 243.7265°
orbit number at epoch: 89497

The dashed part of the orbit path shows where the satellite is in the earth's shadow,  

DLR